Location: Alexandria
(38.8050°N, 77.0470°W)
Time: 11:52:06
(UTC-04:00)

Envisat - Pass Details

Date: 17 March 2018
Orbit: 764 x 766 km, 98.2° (Epoch: 23 June)

Event Time Altitude Azimuth Distance (km) Brightness Sun altitude
Rises 21:41:31 0° 203° (SSW) 3,215 6.2 -28.2°
Reaches altitude 10° 21:44:23 10° 220° (SW) 2,294 5.6 -28.7°
Maximum altitude 21:48:03 20° 267° (W) 1,707 5.4 -29.3°
Drops below altitude 10° 21:51:45 10° 314° (NW) 2,306 6.3 -30.0°
Sets 21:54:40 0° 331° (NNW) 3,237 7.0 -30.5°
